Rome, NY

6:35 AM EST on February 22, 2017 (GMT -0500)
Griffiss

Weather History for KRME - May, 2014

Change the Weather History Date:

Thursday, May 8, 2014

  Actual Average Record
Temperature  
Mean Temperature 60 °F -  
Max Temperature 75 °F 61 °F 88 °F (2015)
Min Temperature 44 °F 39 °F 31 °F (1987)
Degree Days  
Heating Degree Days 6    
Growing Degree Days 10 (Base 50)    
Moisture  
Dew Point 40 °F    
Average Humidity 48    
Maximum Humidity 71    
Minimum Humidity 31    
Precipitation  
Precipitation 0.00 in - - ()
Sea Level Pressure  
Sea Level Pressure 30.10 in    
Wind  
Wind Speed 4 mph (SE)    
Max Wind Speed 9 mph    
Max Gust Speed -    
Visibility 10 miles    
Events Rain    
Averages and records for this station are not official NWS values.
T = Trace of Precipitation, MM = Missing Value Source: NWS Daily Summary

Daily Weather History Graph

Daily Weather History Graph

Search for Another Location

Airport or City:

Trip Planner

Search our weather history database for the weather conditions in past years. The results will help you decide how hot, cold, wet, or windy it might be!

Date:

Astronomy

May. 08, 2014 Rise Set
Actual Time 5:45 AM EDT 8:11 PM EDT
Civil Twilight 5:13 AM EDT 8:43 PM EDT
Nautical Twilight 4:34 AM EDT 9:23 PM EDT
Astronomical Twilight 3:49 AM EDT 10:08 PM EDT
Moon 1:59 PM EDT (5/8) 2:26 AM EDT (5/8)
Length of Visible Light 15h 29m
Length of Day
14h 25m
Waxing Gibbous, 64% of the Moon is Illuminated
May 8
Waxing Gibbous
May 14
Full
May 21
Last Quarter
May 28
New
Jun 5
First Quarter

Hourly Weather History & Observations

Time (EDT) Temp. Windchill Dew Point Humidity Pressure Visibility Wind Dir Wind Speed Gust Speed Precip Events Conditions
12:53 AM 46.9 °F - 32.0 °F 56% 30.16 in 10.0 mi ESE 3.5 mph - N/A   Clear
1:53 AM 45.0 °F - 35.1 °F 68% 30.14 in 10.0 mi Calm Calm - N/A   Clear
2:53 AM 45.0 °F 43.5 °F 34.0 °F 65% 30.15 in 10.0 mi ESE 3.5 mph - N/A   Clear
3:53 AM 45.0 °F 42.6 °F 30.9 °F 58% 30.14 in 10.0 mi SE 4.6 mph - N/A   Clear
4:53 AM 44.1 °F 40.8 °F 32.0 °F 63% 30.14 in 10.0 mi SE 5.8 mph - N/A   Clear
5:53 AM 45.0 °F 42.6 °F 30.9 °F 58% 30.13 in 10.0 mi ESE 4.6 mph - N/A   Clear
6:53 AM 45.0 °F - 36.0 °F 71% 30.15 in 10.0 mi Calm Calm - N/A   Overcast
8:53 AM 55.9 °F - 36.0 °F 47% 30.15 in 10.0 mi ESE 6.9 mph - N/A   Overcast
9:53 AM 60.1 °F - 37.9 °F 44% 30.14 in 10.0 mi SE 8.1 mph - N/A   Partly Cloudy
10:53 AM 62.1 °F - 39.9 °F 44% 30.13 in 10.0 mi South 9.2 mph - N/A   Clear
11:53 AM 66.0 °F - 44.1 °F 45% 30.12 in 10.0 mi East 6.9 mph - N/A   Clear
12:53 PM 68.0 °F - 46.0 °F 45% 30.09 in 10.0 mi Calm Calm - N/A   Clear
2:53 PM 72.0 °F - 46.9 °F 41% 30.04 in 10.0 mi South 9.2 mph - N/A   Clear
3:53 PM 75.0 °F - 43.0 °F 32% 30.04 in 10.0 mi SE 8.1 mph - N/A   Clear
4:53 PM 75.0 °F - 42.1 °F 31% 30.02 in 10.0 mi Calm Calm - N/A   Clear
5:53 PM 73.9 °F - 42.1 °F 32% 30.04 in 10.0 mi SW 3.5 mph - N/A   Clear
6:53 PM 73.0 °F - 41.0 °F 31% 30.03 in 10.0 mi SW 4.6 mph - N/A   Clear
7:53 PM 70.0 °F - 44.1 °F 39% 30.06 in 10.0 mi NE 4.6 mph - N/A   Overcast
8:53 PM 68.0 °F - 45.0 °F 43% 30.06 in 10.0 mi East 4.6 mph - N/A   Mostly Cloudy
9:53 PM 66.9 °F - 46.0 °F 47% 30.06 in 10.0 mi East 4.6 mph - N/A   Mostly Cloudy
10:53 PM 64.9 °F - 46.0 °F 50% 30.08 in 10.0 mi East 4.6 mph - N/A   Mostly Cloudy
11:53 PM 66.0 °F - 46.0 °F 48% 30.10 in 10.0 mi East 9.2 mph - 0.00 in Rain Light Rain